| time (UTC) | temp C | wind direction | speed KPH | gust KPH | rain 1hr cm | rain 24hr cm | rain mn cm | humidity % | barometer mb |
| 20260509134506 | 15 | 185 | 3.2 | 17.7 | 0.00 | 0.00 | 0.00 | 72 | 1003.6 |
| 20260509131504 | 14 | 284 | 3.2 | 12.9 | 0.00 | 0.00 | 0.00 | 76 | 1003.7 |
| 20260509130013 | 13 | 180 | 3.2 | 17.7 | 0.00 | 0.00 | 0.00 | 78 | 1003.8 |
| 20260509124511 | 12 | 243 | 4.8 | 14.5 | 0.00 | 0.00 | 0.00 | 80 | 1003.6 |
| 20260509123004 | 12 | 253 | 1.6 | 16.1 | 0.00 | 0.00 | 0.00 | 81 | 1003.9 |
| 20260509121514 | 12 | 171 | 3.2 | 17.7 | 0.00 | 0.00 | 0.00 | 81 | 1003.9 |
| 20260509120014 | 12 | 242 | 3.2 | 19.3 | 0.00 | 0.00 | 0.00 | 82 | 1003.7 |
| 20260509114507 | 12 | 241 | 1.6 | 16.1 | 0.00 | 0.00 | 0.00 | 82 | 1003.6 |
| 20260509113006 | 11 | 202 | 4.8 | 19.3 | 0.00 | 0.00 | 0.00 | 82 | 1003.3 |
| 20260509111504 | 12 | 213 | 1.6 | 14.5 | 0.00 | 0.00 | 0.00 | 82 | 1003.2 |
| 20260509110005 | 12 | 258 | 3.2 | 16.1 | 0.00 | 0.00 | 0.00 | 82 | 1003.3 |
| 20260509104504 | 12 | 251 | 1.6 | 9.7 | 0.00 | 0.00 | 0.00 | 82 | 1003.1 |
| 20260509103018 | 11 | 220 | 1.6 | 11.3 | 0.00 | 0.00 | 0.00 | 84 | 1002.9 |
| 20260509101531 | 11 | 165 | 3.2 | 9.7 | 0.00 | 0.00 | 0.00 | 85 | 1003.0 |
| 20260509100012 | 11 | 193 | 1.6 | 8.0 | 0.00 | 0.00 | 0.00 | 85 | 1003.1 |
| 20260509094513 | 11 | 249 | 3.2 | 9.7 | 0.00 | 0.00 | 0.00 | 85 | 1003.4 |
| 20260509093008 | 11 | 197 | 1.6 | 11.3 | 0.00 | 0.00 | 0.00 | 85 | 1003.8 |
| 20260509091506 | 11 | 193 | 1.6 | 9.7 | 0.00 | 0.00 | 0.00 | 84 | 1003.8 |
| 20260509090005 | 11 | 212 | 1.6 | 16.1 | 0.00 | 0.00 | 0.00 | 84 | 1003.6 |
| 20260509084527 | 11 | 180 | 4.8 | 9.7 | 0.00 | 0.00 | 0.00 | 84 | 1003.9 |
| 20260509083018 | 11 | 202 | 1.6 | 8.0 | 0.00 | 0.00 | 0.00 | 83 | 1003.8 |
| 20260509080017 | 11 | 175 | 1.6 | 8.0 | 0.00 | 0.00 | 0.00 | 82 | 1003.8 |
| 20260509074512 | 11 | 230 | 0.0 | 9.7 | 0.00 | 0.00 | 0.00 | 82 | 1003.9 |
| 20260509073010 | 12 | 180 | 1.6 | 8.0 | 0.00 | 0.00 | 0.00 | 81 | 1004.0 |
| 20260509071508 | 12 | 204 | 1.6 | 6.4 | 0.00 | 0.00 | 0.00 | 80 | 1004.3 |
| 20260509070004 | 12 | 168 | 3.2 | 12.9 | 0.00 | 0.00 | 0.00 | 80 | 1004.6 |
| 20260509064504 | 12 | 239 | 1.6 | 6.4 | 0.00 | 0.00 | 0.00 | 80 | 1004.7 |
| 20260509063004 | 12 | 189 | 3.2 | 8.0 | 0.00 | 0.00 | 0.00 | 80 | 1004.8 |
| 20260509061521 | 12 | 203 | 1.6 | 9.7 | 0.00 | 0.00 | 0.00 | 79 | 1005.0 |
| 20260509060015 | 12 | 202 | 1.6 | 8.0 | 0.00 | 0.00 | 0.00 | 78 | 1005.2 |
| 20260509054512 | 13 | 262 | 1.6 | 9.7 | 0.00 | 0.00 | 0.00 | 78 | 1005.3 |
| 20260509053015 | 13 | 268 | 1.6 | 11.3 | 0.00 | 0.00 | 0.00 | 77 | 1005.4 |
| 20260509051508 | 13 | 239 | 3.2 | 8.0 | 0.00 | 0.00 | 0.00 | 76 | 1005.2 |
| 20260509050018 | 13 | 239 | 1.6 | 17.7 | 0.00 | 0.00 | 0.00 | 75 | 1005.3 |
| 20260509044506 | 13 | 258 | 1.6 | 12.9 | 0.00 | 0.00 | 0.00 | 74 | 1005.1 |
| 20260509043025 | 12 | 223 | 1.6 | 9.7 | 0.00 | 0.00 | 0.00 | 74 | 1005.5 |
| 20260509041523 | 12 | 209 | 1.6 | 6.4 | 0.00 | 0.00 | 0.00 | 74 | 1005.2 |
| 20260509040033 | 11 | 144 | 0.0 | 6.4 | 0.00 | 0.00 | 0.00 | 74 | 1005.3 |
| 20260509034518 | 11 | 202 | 0.0 | 6.4 | 0.00 | 0.00 | 0.00 | 74 | 1005.5 |
| 20260509033015 | 11 | 167 | 0.0 | 4.8 | 0.00 | 0.00 | 0.00 | 75 | 1005.4 |
| 20260509030009 | 10 | 141 | 0.0 | 0.0 | 0.00 | 0.00 | 0.00 | 73 | 1005.6 |
| 20260509024525 | 11 | 141 | 0.0 | 3.2 | 0.00 | 0.00 | 0.00 | 72 | 1005.7 |
| 20260509023026 | 11 | 138 | 0.0 | 3.2 | 0.00 | 0.00 | 0.00 | 71 | 1005.9 |
| 20260509021521 | 11 | 111 | 0.0 | 3.2 | 0.00 | 0.00 | 0.00 | 69 | 1006.0 |
| 20260509020018 | 11 | 87 | 0.0 | 0.0 | 0.00 | 0.00 | 0.00 | 67 | 1006.1 |
| 20260509013016 | 12 | 116 | 0.0 | 1.6 | 0.00 | 0.00 | 0.00 | 64 | 1006.1 |
| 20260509011515 | 12 | 87 | 0.0 | 3.2 | 0.00 | 0.00 | 0.00 | 62 | 1006.0 |
| 20260509010030 | 12 | 71 | 0.0 | 3.2 | 0.00 | 0.00 | 0.00 | 60 | 1006.0 |
| 20260509004524 | 13 | 31 | 0.0 | 4.8 | 0.00 | 0.00 | 0.00 | 57 | 1006.0 |
| 20260509003024 | 13 | 71 | 1.6 | 8.0 | 0.00 | 0.00 | 0.00 | 56 | 1006.0 |
| 20260509000021 | 14 | 43 | 0.0 | 11.3 | 0.00 | 0.00 | 0.00 | 55 | 1006.1 |
| 20260508234517 | 14 | 52 | 0.0 | 6.4 | 0.00 | 0.00 | 0.00 | 55 | 1006.4 |
| 20260508233003 | 15 | 156 | 1.6 | 12.9 | 0.00 | 0.00 | 0.00 | 51 | 1006.4 |
| 20260508231503 | 16 | 154 | 1.6 | 14.5 | 0.00 | 0.00 | 0.00 | 52 | 1006.5 |
| 20260508230010 | 16 | 19 | 0.0 | 9.7 | 0.00 | 0.00 | 0.00 | 51 | 1006.5 |
| 20260508223009 | 16 | 52 | 3.2 | 12.9 | 0.00 | 0.00 | 0.00 | 48 | 1006.7 |
| 20260508221506 | 15 | 55 | 3.2 | 11.3 | 0.00 | 0.00 | 0.00 | 52 | 1006.8 |
| 20260508220018 | 16 | 216 | 1.6 | 12.9 | 0.00 | 0.00 | 0.00 | 50 | 1006.9 |
| 20260508214504 | 16 | 277 | 3.2 | 17.7 | 0.00 | 0.00 | 0.00 | 50 | 1007.0 |
| 20260508213004 | 17 | 61 | 1.6 | 14.5 | 0.00 | 0.00 | 0.00 | 49 | 1007.1 |
| 20260508211520 | 16 | 69 | 3.2 | 14.5 | 0.00 | 0.03 | 0.00 | 49 | 1007.2 |
| 20260508210012 | 17 | 160 | 3.2 | 17.7 | 0.00 | 0.03 | 0.00 | 47 | 1007.2 |
| 20260508204518 | 17 | 41 | 3.2 | 14.5 | 0.00 | 0.03 | 0.00 | 43 | 1007.3 |
| 20260508203006 | 18 | 57 | 4.8 | 19.3 | 0.00 | 0.03 | 0.00 | 41 | 1007.4 |
| 20260508201505 | 18 | 84 | 4.8 | 14.5 | 0.00 | 0.03 | 0.00 | 39 | 1007.7 |
| 20260508191520 | 18 | 68 | 3.2 | 14.5 | 0.00 | 0.03 | 0.00 | 33 | 1008.1 |
| 20260508190015 | 18 | 283 | 1.6 | 12.9 | 0.00 | 0.03 | 0.00 | 34 | 1008.3 |
| 20260508184519 | 18 | 63 | 6.4 | 19.3 | 0.00 | 0.03 | 0.00 | 32 | 1008.6 |
| 20260508183010 | 18 | 46 | 3.2 | 20.9 | 0.00 | 0.03 | 0.00 | 32 | 1008.7 |
| 20260508181508 | 18 | 60 | 4.8 | 14.5 | 0.00 | 0.03 | 0.00 | 32 | 1008.8 |
| 20260508180010 | 19 | 89 | 4.8 | 19.3 | 0.00 | 0.03 | 0.00 | 32 | 1009.0 |
| 20260508174511 | 18 | 49 | 6.4 | 16.1 | 0.00 | 0.03 | 0.00 | 34 | 1009.3 |
| 20260508173021 | 18 | 191 | 3.2 | 11.3 | 0.00 | 0.03 | 0.00 | 37 | 1009.6 |
| 20260508171520 | 18 | 20 | 3.2 | 12.9 | 0.00 | 0.03 | 0.00 | 36 | 1009.8 |
| 20260508170014 | 18 | 97 | 4.8 | 16.1 | 0.00 | 0.03 | 0.00 | 36 | 1009.9 |
| 20260508164512 | 18 | 20 | 3.2 | 14.5 | 0.00 | 0.03 | 0.00 | 36 | 1010.1 |
| 20260508163020 | 17 | 63 | 1.6 | 11.3 | 0.00 | 0.03 | 0.00 | 41 | 1010.4 |
| 20260508154523 | 16 | 72 | 1.6 | 6.4 | 0.00 | 0.03 | 0.00 | 38 | 1010.7 |
| 20260508153024 | 16 | 90 | 0.0 | 9.7 | 0.00 | 0.03 | 0.00 | 45 | 1010.9 |
| 20260508151525 | 14 | 270 | 1.6 | 4.8 | 0.00 | 0.03 | 0.00 | 60 | 1011.1 |
| 20260508150024 | 13 | 104 | 0.0 | 8.0 | 0.00 | 0.03 | 0.00 | 63 | 1011.1 |
| 20260508144519 | 13 | 106 | 0.0 | 4.8 | 0.00 | 0.03 | 0.00 | 65 | 1011.2 |
| 20260508143002 | 12 | 213 | 1.6 | 4.8 | 0.00 | 0.03 | 0.00 | 67 | 1011.3 |
| 20260508141502 | 12 | 40 | 0.0 | 6.4 | 0.00 | 0.03 | 0.00 | 70 | 1011.2 |
| 20260508140005 | 11 | 60 | 1.6 | 4.8 | 0.00 | 0.03 | 0.00 | 72 | 1011.2 |